This demonstration page uses our WeatherBlox Daily Observations layout. Learn more.

Left ArrowRight Arrow

Hourly Observations for May 1, 2020

Temp ( °F °C ) Dew Point ( °F °C ) Humidity (%) Winds ( mph kmh ) Pressure ( in mb ) Visibility ( mi km ) Precip ( " mm )
12:53 am 00:53 Clear 62 16.7 36 2.2 38 38 WNW 5 7 29.97 1015 10 16 0.00 0.00
1:53 am 01:53 Clear 56 13.3 42 5.6 60 60 Calm 29.98 1015 10 16 0.00 0.00
2:53 am 02:53 Clear 54 12.2 42 5.6 64 64 Calm 30.00 1016 10 16 0.00 0.00
3:53 am 03:53 Clear 52 11.1 42 5.6 69 69 undefined N/A 30.01 1016 10 16 0.00 0.00
4:53 am 04:53 Clear 48 8.9 42 5.6 80 80 Calm 30.01 1016 10 16 0.00 0.00
5:53 am 05:53 Clear 49 9.4 41 5 74 74 Calm 30.02 1017 10 16 0.00 0.00
6:53 am 06:53 Sunny 50 10 42 5.6 74 74 Calm 30.04 1017 10 16 0.00 0.00
7:53 am 07:53 Sunny 56 13.3 42 5.6 60 60 NNE 3 6 30.06 1018 10 16 0.00 0.00
8:53 am 08:53 Sunny 61 16.1 42 5.6 50 50 N 3 6 30.06 1018 10 16 0.00 0.00
9:53 am 09:53 Sunny 67 19.4 42 5.6 41 41 Calm 30.06 1018 10 16 0.00 0.00
10:53 am 10:53 Sunny 70 21.1 36 2.2 29 29 VRB 5 7 30.05 1018 10 16 0.00 0.00
11:53 am 11:53 Sunny 73 22.8 37 2.8 27 27 Calm 30.04 1017 10 16 0.00 0.00
12:53 pm 12:53 Sunny 77 25 38 3.3 24 24 Calm 30.01 1016 10 16 0.00 0.00
1:53 pm 13:53 Sunny 77 25 36 2.2 23 23 S 5 7 29.98 1015 10 16 0.00 0.00
2:53 pm 14:53 Sunny 80 26.7 39 3.9 23 23 VRB 5 7 29.96 1015 10 16 0.00 0.00
3:53 pm 15:53 Sunny 81 27.2 36 2.2 20 20 SSW 9 15 29.94 1014 10 16 0.00 0.00
4:53 pm 16:53 Sunny 81 27.2 36 2.2 20 20 S 7 11 29.92 1013 10 16 0.00 0.00
5:53 pm 17:53 Sunny 81 27.2 35 1.7 19 19 SSE 14 22 29.91 1013 10 16 0.00 0.00
6:53 pm 18:53 Partly Cloudy 79 26.1 40 4.4 25 25 S 10 17 29.91 1013 10 16 0.00 0.00
7:53 pm 19:53 Partly Cloudy 76 24.4 41 5 29 29 S 9 15 29.90 1012 10 16 0.00 0.00
8:53 pm 20:53 Mostly Cloudy 73 22.8 42 5.6 33 33 SSE 3 6 29.91 1013 10 16 0.00 0.00
9:53 pm 21:53 Mostly Clear 70 21.1 43 6.1 38 38 Calm 29.91 1013 10 16 0.00 0.00
10:53 pm 22:53 Clear 66 18.9 45 7.2 47 47 NE 5 7 29.92 1013 10 16 0.00 0.00
11:53 pm 23:53 Clear 63 17.2 45 7.2 52 52 Calm 29.92 1013 10 16 0.00 0.00

Powered by AerisWeather